Theta_e
354 354 350 349 347 344 343 342 342 341 341 338 340 342 344 344 344 346 348 345 345 345 349 349 346 348 347 345 347 347 345 345 350 349 349 348 348 347 346 347 347 346 345
351 353 350 349 347 347 344 343 343 342 341 339 339 339 342 341 345 346 345 349 351 348 347 349 346 345 349 344 347 346 345 351 350 350 350 350 350 350 349 347 347 345 345
350 352 351 348 348 348 347 345 344 343 342 340 339 338 338 340 345 345 349 352 353 353 353 351 348 342 346 345 345 349 351 350 349 350 349 347 347 349 349 347 346 347 346
348 351 350 349 350 350 348 348 346 344 343 342 341 339 336 337 342 347 346 345 349 348 352 350 350 344 344 344 344 348 346 346 350 349 344 347 350 350 349 347 346 346 346
351 350 349 350 350 350 349 348 347 345 344 343 343 343 342 336 341 348 351 347 350 350 347 351 352 347 343 342 344 346 344 345 349 342 346 349 347 349 348 348 348 346 345
350 351 350 349 349 349 348 348 348 347 344 344 344 344 344 344 343 349 349 348 349 346 349 350 352 349 344 342 344 345 344 342 347 347 348 347 344 348 349 348 347 344 343
350 350 349 347 348 348 348 348 348 348 345 345 344 345 346 347 349 347 344 350 349 348 348 349 352 353 347 342 343 344 341 344 347 348 349 345 340 343 348 348 348 346 344
345 348 348 347 347 347 348 348 348 348 346 346 345 346 347 347 346 343 350 348 351 349 349 348 348 352 352 345 343 344 343 345 348 348 346 345 338 343 349 348 346 345 342
344 348 348 347 347 347 348 348 349 348 347 347 347 348 348 347 347 347 348 346 347 347 351 347 347 351 348 344 343 342 342 345 348 347 346 346 338 343 348 345 346 345 341
347 343 347 347 347 347 348 348 348 349 349 348 349 351 350 352 350 351 347 346 343 347 347 349 347 349 347 345 342 341 341 344 347 347 347 347 340 343 348 347 345 343 344
350 346 344 347 347 347 348 349 347 348 350 351 354 353 352 348 349 351 347 344 345 345 346 348 346 349 348 345 342 342 341 342 346 347 346 347 339 343 347 347 344 341 339
354 350 347 349 350 350 348 346 346 350 352 351 352 353 346 340 342 346 346 345 347 348 350 347 347 346 348 345 346 343 342 341 342 346 348 347 341 342 341 342 344 344 340
356 355 353 351 349 345 342 341 340 347 348 350 350 351 342 346 348 350 350 349 346 348 348 347 346 346 344 346 344 343 342 340 342 347 342 347 340 339 340 342 342 341 345
358 357 356 355 354 353 353 348 340 343 342 342 339 344 348 349 350 350 349 349 348 348 345 347 344 345 346 345 346 343 342 340 346 347 347 347 344 340 341 343 341 342 343
358 358 357 354 354 353 353 351 348 344 344 344 345 346 346 346 348 345 346 348 348 349 345 346 346 345 345 345 348 348 346 341 346 347 345 347 344 341 338 342 344 340 342
355 355 355 355 355 353 353 350 350 348 347 347 346 342 343 342 342 342 338 343 347 348 348 349 348 348 347 349 349 348 347 346 347 346 346 345 345 343 339 338 346 344 343
354 354 355 355 355 351 351 350 349 347 346 347 348 346 343 343 344 342 337 341 343 348 346 347 348 348 347 347 348 348 347 346 348 347 346 346 345 341 342 338 346 345 346
353 355 355 354 354 353 350 349 347 342 341 346 346 346 338 338 342 342 341 343 342 345 345 344 346 347 348 348 347 347 347 347 346 346 347 347 346 344 345 340 341 344 345
353 355 353 354 353 353 353 353 351 350 349 348 347 345 340 332 345 345 343 343 341 342 343 345 345 344 347 347 347 348 347 347 348 348 345 347 346 346 346 344 340 340 339
350 351 351 351 351 353 353 352 351 350 348 347 348 346 345 345 343 344 344 343 342 342 343 344 343 343 345 345 346 347 346 346 346 346 347 347 347 347 346 343 339 340 337
350 350 351 353 353 354 353 352 351 349 347 346 345 345 344 343 344 343 343 342 343 344 344 343 343 344 345 346 346 346 345 346 346 346 347 347 348 347 347 346 343 340 337
352 352 353 355 354 354 354 353 350 348 346 345 344 343 343 343 343 343 343 342 340 344 346 344 343 344 343 343 343 342 341 342 343 342 344 347 347 347 347 346 345 343 343
347 351 354 353 353 353 351 350 348 346 346 345 343 342 341 340 339 340 341 341 341 340 345 345 343 344 343 342 343 341 341 339 341 341 346 347 347 346 346 345 345 344 344
333 349 353 354 353 351 349 347 346 344 344 342 340 338 337 339 339 339 339 341 340 340 344 343 343 343 343 343 343 341 343 342 340 340 339 342 345 346 346 345 345 345 345
333 348 353 352 351 349 347 344 343 342 342 341 340 341 341 340 340 338 339 340 341 340 342 343 343 343 342 342 342 342 342 343 339 340 340 339 341 343 345 345 345 345 345
344 353 352 351 349 347 345 340 339 339 337 339 340 340 341 341 341 338 339 341 340 340 341 343 343 343 342 343 342 342 341 341 341 341 340 340 339 341 343 344 345 345 344
Wind_Speed
27 24 22 22 23 23 22 22 22 21 21 23 23 24 23 23 23 22 20 19 17 17 14 14 14 11 11 12 12 13 13 17 18 20 18 19 20 20 18 17 16 18 18
35 30 26 24 23 22 22 21 22 21 20 20 21 21 21 22 21 20 18 16 14 14 13 12 12 12 10 12 12 13 15 16 19 20 19 18 18 18 16 16 16 18 17
34 30 28 26 24 22 22 21 20 20 20 19 19 18 18 18 19 17 16 15 14 13 12 12 11 11 12 12 13 14 17 17 18 19 19 18 15 13 16 16 16 16 17
35 32 30 26 23 21 20 20 19 19 19 18 18 18 18 17 17 15 14 13 11 12 11 10 10 11 12 12 13 14 17 17 16 17 19 16 14 16 15 16 16 16 16
35 33 31 28 25 21 19 19 19 19 18 17 16 16 15 16 15 14 12 11 10 9 10 9 8 9 10 13 13 15 16 16 16 16 16 15 16 15 14 16 16 14 16
34 32 30 28 25 22 20 20 20 19 18 16 15 14 13 13 13 12 10 9 8 7 8 8 7 8 9 13 12 14 16 17 16 15 12 10 13 15 15 14 16 14 15
33 32 29 27 24 22 20 19 18 18 18 15 14 12 12 11 11 10 9 7 7 7 7 9 8 8 10 13 13 13 15 17 13 8 10 14 12 14 14 15 14 14 14
32 31 29 26 23 21 20 18 18 18 17 15 14 13 12 11 9 9 8 6 7 6 7 8 9 9 10 12 15 14 15 16 12 11 17 14 14 16 15 15 13 13 14
31 32 29 26 23 21 19 18 17 17 16 14 13 12 11 11 10 9 8 7 5 5 7 8 9 10 10 10 14 16 15 12 11 11 15 15 14 16 16 15 14 13 13
28 27 28 27 25 22 20 17 16 15 16 15 14 13 12 10 10 9 8 6 6 6 7 8 10 9 10 10 12 16 17 13 12 10 12 16 16 16 16 17 15 15 13
24 25 25 24 24 22 19 17 16 15 16 16 15 14 12 11 10 9 7 7 6 7 8 8 8 9 9 9 11 14 18 17 12 8 12 16 16 17 17 17 15 15 16
24 24 23 23 21 21 20 19 18 18 17 17 17 17 16 14 12 10 8 9 8 8 9 9 9 9 10 9 9 14 19 17 13 11 13 18 18 17 16 17 17 16 15
26 25 24 23 21 21 20 19 20 20 20 21 19 18 15 14 12 12 10 10 10 8 9 10 10 11 11 9 10 13 15 16 11 11 13 19 17 17 17 18 18 17 16
27 24 23 22 21 19 18 20 21 22 22 21 20 19 18 14 13 14 11 10 11 11 10 11 11 11 11 10 9 10 13 15 11 13 15 18 18 19 18 19 18 18 18
25 25 22 21 21 21 20 18 20 20 20 20 20 21 21 21 16 12 12 12 12 11 12 13 13 12 12 12 12 11 11 13 14 14 14 22 21 20 17 19 19 19 19
23 24 24 23 22 21 21 20 21 21 20 20 21 22 22 22 20 18 15 14 13 14 12 13 14 13 14 15 14 13 12 12 14 14 18 23 21 17 18 19 19 19 19
26 24 25 23 21 20 19 19 20 22 23 22 21 20 21 22 22 21 18 15 17 15 13 15 14 15 14 13 13 14 15 16 16 17 19 22 20 19 20 20 19 20 19
28 27 24 23 20 20 19 18 15 15 20 20 20 22 23 24 19 20 18 18 17 19 14 15 15 17 16 14 14 13 12 12 15 13 15 18 17 19 19 19 19 19 20
30 30 27 23 21 18 15 13 12 13 15 16 19 19 17 21 21 20 20 20 18 20 20 18 17 18 14 14 14 11 12 14 14 14 15 18 17 17 16 19 19 19 20
30 27 23 19 19 18 16 15 13 12 12 11 14 15 17 21 23 22 22 21 20 20 21 18 17 18 15 16 13 10 10 11 11 14 15 16 15 14 16 22 22 23 27
26 28 27 23 20 20 17 13 12 13 12 14 15 14 16 16 20 20 21 20 21 23 23 21 20 19 15 14 16 10 8 11 13 13 12 15 15 17 19 22 20 24 28
19 31 25 22 23 19 17 13 9 10 11 14 16 16 19 16 15 22 23 24 23 24 24 21 22 20 20 16 9 3 2 5 11 13 13 13 16 17 19 21 24 25 28
21 18 26 20 19 16 13 9 8 9 11 14 14 14 14 14 13 17 23 23 24 25 26 25 25 22 20 21 17 6 2 3 2 1 6 13 14 18 21 23 24 24 27
22 18 19 16 15 12 9 6 5 6 7 10 13 13 14 14 15 15 21 24 25 23 26 25 24 27 23 22 20 14 2 4 3 1 3 6 9 16 19 20 23 24 24
20 14 16 17 14 10 6 4 3 3 5 9 10 11 13 15 16 17 18 22 24 23 25 26 27 25 25 24 21 18 16 7 6 2 1 9 10 13 18 19 22 24 24
13 18 21 20 15 10 7 4 3 4 7 7 7 8 12 7 10 14 16 18 22 22 24 26 26 26 25 27 24 17 15 7 7 4 1 6 12 11 14 16 19 23 22
Wind_Direction
162 159 157 150 145 140 137 133 125 120 119 120 122 120 118 119 123 126 127 130 134 136 132 128 130 118 123 128 137 138 134 131 127 124 124 125 121 121 118 117 116 116 114
160 162 159 155 148 143 140 135 131 128 123 121 122 122 123 120 121 122 126 126 129 134 137 136 132 123 125 130 138 141 137 134 129 126 125 122 123 125 119 119 120 120 119
159 162 161 156 153 149 144 142 138 135 130 127 125 126 123 126 125 124 126 127 127 129 134 139 133 124 122 131 132 135 136 138 134 130 132 128 124 132 126 123 126 125 122
159 162 162 159 158 155 150 148 147 144 138 136 135 134 132 134 133 130 130 127 128 133 135 141 135 127 124 131 133 137 140 140 138 137 133 121 125 131 128 131 132 132 129
159 163 162 162 163 161 157 156 156 155 149 145 144 142 139 135 140 139 138 132 133 140 142 147 147 135 130 127 138 145 147 144 143 135 136 139 139 136 134 136 136 137 134
161 162 162 163 164 163 164 163 162 161 156 153 151 147 143 140 144 146 144 144 147 147 157 155 170 154 146 132 145 153 153 149 151 141 151 164 151 142 140 143 143 141 139
163 163 164 165 163 163 164 165 163 164 162 161 158 155 149 149 151 154 153 159 154 155 158 164 178 178 166 150 152 157 157 156 159 191 197 164 159 148 147 150 149 145 145
160 165 166 167 162 161 164 166 166 166 168 168 167 163 160 159 159 160 158 166 163 169 172 172 176 183 185 162 156 165 166 162 164 152 161 171 164 155 154 159 156 155 152
161 165 168 167 165 164 165 167 168 170 173 174 174 173 170 168 169 169 173 170 177 177 188 180 177 187 191 178 160 172 174 176 179 175 175 186 174 168 166 163 164 164 160
160 166 170 171 170 170 169 169 171 175 178 178 181 183 179 177 175 180 187 196 185 192 199 195 185 198 198 193 180 171 177 184 168 173 192 191 183 176 169 169 173 167 172
162 169 174 174 174 175 176 172 174 180 183 182 182 184 182 187 182 187 199 210 212 202 204 208 201 202 206 199 187 181 182 194 195 208 188 193 188 184 175 177 178 176 177
165 170 175 177 176 177 178 176 178 180 182 189 189 189 193 187 185 193 203 220 223 212 210 209 211 207 213 209 195 183 187 193 195 205 200 192 196 192 187 178 186 185 182
169 174 181 178 176 179 178 182 183 187 189 192 195 200 197 194 187 193 206 213 212 221 218 210 213 211 217 216 211 192 194 192 190 201 183 190 197 201 194 186 190 191 191
176 183 182 182 180 181 181 188 192 194 196 196 196 198 198 198 194 203 210 217 219 225 222 221 216 214 220 216 210 207 207 199 190 195 207 203 209 206 200 195 197 197 196
182 186 186 187 186 189 191 196 196 199 204 206 205 203 201 205 197 200 212 214 222 226 223 225 217 214 220 216 222 229 216 206 209 221 197 192 206 209 205 201 203 202 202
193 193 189 192 194 196 203 205 202 204 209 210 217 218 215 212 215 221 219 228 222 224 227 225 223 214 212 218 234 235 226 216 226 228 194 196 204 210 215 212 207 208 209
197 199 192 192 194 197 203 210 206 210 214 213 218 224 219 226 232 231 224 226 223 219 220 223 225 223 219 215 218 228 233 236 233 235 218 209 227 226 220 217 213 215 216
189 192 195 190 190 198 201 202 211 207 210 221 221 230 237 234 229 221 222 227 221 219 221 224 220 217 215 210 220 223 228 228 223 225 232 230 231 218 219 223 224 226 225
184 189 190 189 191 190 194 202 209 213 226 232 231 238 243 229 229 227 226 228 222 220 218 217 218 221 211 209 214 221 220 224 216 220 228 232 225 228 229 222 225 232 240
181 185 195 200 199 200 202 211 220 225 234 238 234 241 241 252 240 237 229 233 226 220 220 217 218 222 218 210 212 205 223 230 224 220 230 232 230 225 234 218 217 218 226
193 192 195 194 197 199 206 208 213 238 246 245 247 242 251 246 240 232 232 231 231 223 221 217 218 216 211 205 206 204 229 231 230 226 230 227 231 234 227 222 220 228 229
225 199 192 195 192 202 213 218 231 254 264 265 267 258 255 251 231 233 234 230 227 228 227 223 218 213 216 212 205 154 187 232 237 236 231 236 241 233 231 236 234 241 231
211 219 186 186 184 193 213 225 243 255 265 273 278 276 268 271 263 240 235 231 227 227 226 220 222 218 205 207 209 169 152 204 203 234 243 241 245 240 241 243 246 241 242
207 213 197 190 187 187 209 219 237 265 281 296 298 289 282 270 258 241 233 230 229 225 222 221 221 217 214 206 202 218 189 147 162 336 344 307 272 251 245 248 244 241 244
203 230 189 169 164 167 172 174 203 250 284 297 295 291 293 276 256 242 233 227 226 224 222 223 226 226 218 210 203 203 213 167 148 151 227 340 306 265 247 247 240 237 239
204 190 159 157 154 156 150 125 46 356 336 320 308 318 320 269 252 232 230 229 228 223 221 221 226 229 225 220 212 198 195 173 169 159 216 245 269 281 244 238 233 232 236